FW7308 Weather Reports


time (UTC)temp
C
wind
direction
speed
KPH
gust
KPH
rain 1hr
cm
rain 24hr
cm
rain mn
cm
humidity
%
barometer
mb
20260831230739 20 5 3.2 4.8 0.00 0.00 0.00 86 1021.2
20260831230240 20 315 1.6 1.6 0.00 0.00 0.00 86 1021.4
20260831225739 20 0.0 0.0 0.00 0.00 0.00 86 1021.4
20260831225238 20 318 1.6 3.2 0.00 0.00 0.00 86 1021.4
20260831224737 20 331 1.6 1.6 0.00 0.00 0.00 86 1021.4
20260831224239 20 351 1.6 3.2 0.00 0.00 0.00 86 1021.4
20260831223738 21 300 1.6 1.6 0.00 0.00 0.00 84 1021.4
20260831223337 21 288 0.0 3.2 0.00 0.00 0.00 84 1021.4
20260831222737 21 324 1.6 1.6 0.00 0.00 0.00 82 1021.4
20260831222238 21 321 1.6 3.2 0.00 0.00 0.00 82 1021.4
20260831221737 21 32 3.2 4.8 0.00 0.00 0.00 82 1021.4
20260831220735 21 303 3.2 4.8 0.00 0.00 0.00 81 1021.7
20260831220237 21 328 0.0 1.6 0.00 0.00 0.00 81 1021.4
20260831215736 21 325 1.6 3.2 0.00 0.00 0.00 80 1021.4
20260831215236 21 270 1.6 4.8 0.00 0.00 0.00 80 1021.4
20260831214734 21 271 4.8 8.0 0.00 0.00 0.00 79 1021.4
20260831214235 22 263 4.8 8.0 0.00 0.00 0.00 78 1021.4
20260831213835 22 104 4.8 8.0 0.00 0.00 0.00 76 1021.0
20260831213234 22 165 9.7 12.9 0.00 0.00 0.00 75 1021.2
20260831212733 22 75 4.8 8.0 0.00 0.00 0.00 76 1021.4
20260831212237 22 137 3.2 8.0 0.00 0.00 0.00 76 1021.4
20260831211733 22 283 3.2 4.8 0.00 0.00 0.00 75 1021.4
20260831211232 22 181 6.4 8.0 0.00 0.00 0.00 74 1021.2
20260831210731 22 98 6.4 8.0 0.00 0.00 0.00 73 1021.4
20260831210233 22 181 4.8 8.0 0.00 0.00 0.00 74 1021.4
20260831205736 22 349 3.2 4.8 0.00 0.00 0.00 73 1021.4
20260831205231 22 19 4.8 4.8 0.00 0.00 0.00 72 1021.4
20260831204736 23 294 3.2 4.8 0.00 0.00 0.00 71 1021.4
20260831204240 23 98 9.7 12.9 0.00 0.00 0.00 72 1021.4
20260831203737 22 103 6.4 9.7 0.00 0.00 0.00 74 1021.4
20260831203336 22 163 4.8 4.8 0.00 0.00 0.00 73 1021.4
20260831202737 22 91 4.8 8.0 0.00 0.00 0.00 73 1021.4
20260831202336 23 230 3.2 4.8 0.00 0.00 0.00 73 1021.4
20260831201836 22 149 8.0 12.9 0.00 0.00 0.00 72 1021.4
20260831201333 23 162 14.5 16.1 0.00 0.00 0.00 72 1021.4
20260831200734 23 182 8.0 9.7 0.00 0.00 0.00 73 1021.5
20260831200227 24 163 11.3 14.5 0.00 0.00 0.00 70 1021.5
20260831195733 24 324 6.4 11.3 0.00 0.00 0.00 72 1021.4
20260831195227 24 133 9.7 22.5 0.00 0.00 0.00 70 1021.4
20260831194728 24 332 1.6 3.2 0.00 0.00 0.00 68 1021.7
20260831194226 23 62 4.8 9.7 0.00 0.00 0.00 70 1021.7
20260831193827 23 169 11.3 14.5 0.00 0.00 0.00 71 1021.7
20260831193226 23 173 8.0 11.3 0.00 0.00 0.00 69 1021.7
20260831192727 23 240 8.0 11.3 0.00 0.00 0.00 69 1021.9
20260831192228 23 14 4.8 8.0 0.00 0.00 0.00 70 1021.7
20260831191725 23 301 4.8 8.0 0.00 0.00 0.00 69 1021.7
20260831191225 24 170 9.7 14.5 0.00 0.00 0.00 69 1021.9
20260831190725 23 319 3.2 4.8 0.00 0.00 0.00 67 1022.1
20260831190223 23 224 11.3 17.7 0.00 0.00 0.00 67 1022.1
20260831185727 23 247 3.2 8.0 0.00 0.00 0.00 68 1022.1
20260831185324 23 192 8.0 11.3 0.00 0.00 0.00 67 1022.1
20260831184725 23 18 1.6 3.2 0.00 0.00 0.00 67 1022.1
20260831174218 22 162 8.0 16.1 0.00 0.00 0.00 68 1022.8
20260831173724 22 23 3.2 4.8 0.00 0.00 0.00 67 1022.8
20260831173220 22 344 4.8 8.0 0.00 0.00 0.00 65 1022.8
20260831172218 22 129 4.8 9.7 0.00 0.00 0.00 66 1022.8
20260831171217 22 182 6.4 9.7 0.00 0.00 0.00 63 1022.8
20260831170718 22 308 3.2 3.2 0.00 0.00 0.00 65 1022.8
20260831170245 22 226 6.4 11.3 0.00 0.00 0.00 63 1022.8
20260831165746 22 327 0.0 1.6 0.00 0.00 0.00 63 1023.1
20260831165245 22 180 4.8 8.0 0.00 0.00 0.00 61 1023.1
20260831164745 22 221 4.8 4.8 0.00 0.00 0.00 62 1023.1
20260831164244 22 168 6.4 9.7 0.00 0.00 0.00 62 1023.1
20260831163743 21 322 1.6 1.6 0.00 0.00 0.00 60 1023.1
20260831163244 22 126 4.8 8.0 0.00 0.00 0.00 59 1023.1
20260831162743 22 147 6.4 9.7 0.00 0.00 0.00 59 1023.1
20260831162243 22 26 8.0 9.7 0.00 0.00 0.00 57 1023.5
20260831161742 21 77 4.8 8.0 0.00 0.00 0.00 60 1023.5
20260831161243 21 24 3.2 4.8 0.00 0.00 0.00 58 1023.5
20260831160742 21 77 4.8 8.0 0.00 0.00 0.00 59 1023.5
20260831160241 21 338 1.6 1.6 0.00 0.00 0.00 56 1023.5
20260831155741 21 11 4.8 4.8 0.00 0.00 0.00 59 1023.5
20260831155242 21 161 4.8 8.0 0.00 0.00 0.00 60 1023.5
20260831154741 21 273 4.8 4.8 0.00 0.00 0.00 61 1023.5
20260831153741 21 151 6.4 8.0 0.00 0.00 0.00 67 1023.8
20260831153240 21 195 8.0 11.3 0.00 0.00 0.00 67 1023.5
20260831152743 21 306 3.2 3.2 0.00 0.00 0.00 65 1023.5
20260831152239 21 346 1.6 1.6 0.00 0.00 0.00 67 1023.5
20260831151740 22 326 6.4 8.0 0.00 0.00 0.00 64 1023.5
20260831151239 21 108 6.4 9.7 0.00 0.00 0.00 68 1023.5
20260831150738 21 229 4.8 4.8 0.00 0.00 0.00 67 1023.6
20260831150237 21 184 6.4 9.7 0.00 0.00 0.00 69 1023.5
20260831145738 21 335 1.6 3.2 0.00 0.00 0.00 67 1023.5
20260831144737 20 11 3.2 4.8 0.00 0.00 0.00 71 1023.8
20260831144337 21 105 6.4 11.3 0.00 0.00 0.00 69 1023.8
20260831143736 20 336 3.2 4.8 0.00 0.00 0.00 73 1023.8
20260831143237 20 323 3.2 4.8 0.00 0.00 0.00 76 1023.6
20260831142235 20 25 3.2 4.8 0.00 0.00 0.00 76 1023.8
20260831141735 20 82 4.8 8.0 0.00 0.00 0.00 77 1023.8
20260831141237 20 321 1.6 3.2 0.00 0.00 0.00 77 1023.8
20260831140736 20 349 3.2 4.8 0.00 0.00 0.00 76 1023.8
20260831140234 20 207 6.4 8.0 0.00 0.00 0.00 78 1023.8
20260831135733 20 162 6.4 9.7 0.00 0.00 0.00 79 1023.8
20260831135236 20 202 4.8 8.0 0.00 0.00 0.00 79 1023.5
20260831134733 20 305 3.2 3.2 0.00 0.00 0.00 79 1023.8
20260831134332 19 324 6.4 8.0 0.00 0.00 0.00 81 1023.5
20260831133732 20 6 3.2 4.8 0.00 0.00 0.00 83 1023.8
20260831133233 18 332 0.0 1.6 0.00 0.00 0.00 87 1023.6
20260831132732 18 339 4.8 4.8 0.00 0.00 0.00 86 1023.8
20260831132231 18 334 4.8 4.8 0.00 0.00 0.00 84 1023.6
20260831131730 18 14 3.2 4.8 0.00 0.00 0.00 89 1023.5
20260831131229 18 316 3.2 3.2 0.00 0.00 0.00 88 1023.5
20260831130731 18 335 4.8 9.7 0.00 0.00 0.00 83 1023.5
20260831130232 18 351 3.2 4.8 0.00 0.00 0.00 85 1023.5
20260831125729 18 317 4.8 8.0 0.00 0.00 0.00 86 1023.5
20260831125230 18 311 3.2 4.8 0.00 0.00 0.00 89 1023.6
20260831124729 17 324 1.6 3.2 0.00 0.00 0.00 91 1023.5
20260831124229 17 0.0 0.0 0.00 0.00 0.00 93 1023.5
20260831123733 17 335 1.6 3.2 0.00 0.00 0.00 94 1023.5
20260831123229 17 0.0 0.0 0.00 0.00 0.00 98 1023.5
20260831122227 16 320 0.0 1.6 0.00 0.00 0.00 99 1023.5
20260831111723 14 325 3.2 3.2 0.00 0.00 0.00 99 1023.1
20260831111222 13 328 3.2 3.2 0.00 0.00 0.00 99 1022.8
20260831110723 13 331 1.6 1.6 0.00 0.00 0.00 99 1022.8
20260831110222 13 0.0 0.0 0.00 0.00 0.00 99 1022.8
20260831105722 13 331 1.6 1.6 0.00 0.00 0.00 99 1022.8
20260831105222 13 331 1.6 1.6 0.00 0.00 0.00 99 1022.9
20260831104720 13 333 1.6 3.2 0.00 0.00 0.00 99 1022.4
20260831104222 13 329 1.6 1.6 0.00 0.00 0.00 99 1022.8
20260831103720 13 326 1.6 1.6 0.00 0.00 0.00 99 1022.8
20260831103219 14 324 3.2 4.8 0.00 0.00 0.00 99 1022.8
20260831102722 13 318 3.2 8.0 0.00 0.00 0.00 99 1022.8
20260831102321 13 322 3.2 3.2 0.00 0.00 0.00 99 1022.8
20260831101720 13 325 3.2 4.8 0.00 0.00 0.00 99 1022.4
20260831101218 13 321 3.2 3.2 0.00 0.00 0.00 99 1022.4
20260831100719 13 326 3.2 4.8 0.00 0.00 0.00 99 1022.8
20260831100218 13 324 3.2 3.2 0.00 0.00 0.00 99 1022.8
20260831095818 13 326 1.6 3.2 0.00 0.00 0.00 99 1022.8
20260831094759 13 327 1.6 3.2 0.00 0.00 0.00 99 1022.8
20260831074238 14 321 3.2 3.2 0.00 0.00 0.00 99 1021.9
20260831073740 14 322 3.2 3.2 0.00 0.00 0.00 99 1021.7
20260831073339 14 328 3.2 3.2 0.00 0.00 0.00 99 1021.7
20260831072803 14 326 3.2 3.2 0.00 0.00 0.00 99 1021.7
20260831072238 14 322 3.2 3.2 0.00 0.00 0.00 99 1021.7
20260831071737 14 323 3.2 3.2 0.00 0.00 0.00 99 1021.7
20260831071237 15 324 3.2 3.2 0.00 0.00 0.00 99 1021.4
20260831070736 15 322 3.2 3.2 0.00 0.00 0.00 99 1021.7
20260831070237 15 325 3.2 3.2 0.00 0.00 0.00 99 1021.7
20260831064735 15 327 1.6 3.2 0.00 0.00 0.00 99 1021.7
20260831063736 15 333 3.2 3.2 0.00 0.00 0.00 99 1021.7
20260831063234 15 333 3.2 3.2 0.00 0.00 0.00 99 1021.5
20260831062738 15 322 3.2 3.2 0.00 0.00 0.00 99 1021.7
20260831061734 15 320 3.2 3.2 0.00 0.00 0.00 99 1021.7
20260831061233 15 322 3.2 3.2 0.00 0.00 0.00 99 1021.7
20260831060732 15 318 1.6 3.2 0.00 0.00 0.00 99 1021.7
20260831060233 15 0.0 0.0 0.00 0.00 0.00 99 1021.9
20260831055732 15 332 3.2 3.2 0.00 0.00 0.00 99 1021.7
20260831055232 15 331 1.6 3.2 0.00 0.00 0.00 99 1021.7
20260831054732 15 326 3.2 3.2 0.00 0.00 0.00 99 1021.7
20260831054230 15 329 3.2 3.2 0.00 0.00 0.00 99 1021.7
20260831053731 15 324 1.6 3.2 0.00 0.00 0.00 99 1021.5
20260831053230 15 328 3.2 3.2 0.00 0.00 0.00 99 1021.4
20260831052733 15 323 1.6 3.2 0.00 0.00 0.00 99 1021.4
20260831052229 15 322 1.6 1.6 0.00 0.00 0.00 99 1021.5
20260831051728 15 323 1.6 1.6 0.00 0.00 0.00 99 1021.4
20260831051230 15 328 1.6 1.6 0.00 0.00 0.00 99 1021.4
20260831050729 15 322 1.6 3.2 0.00 0.00 0.00 99 1021.4
20260831050227 15 324 1.6 1.6 0.00 0.00 0.00 99 1021.4
20260831045726 15 324 1.6 1.6 0.00 0.00 0.00 98 1021.4
20260831045228 16 0.0 0.0 0.00 0.00 0.00 98 1021.0
20260831044727 16 331 1.6 3.2 0.00 0.00 0.00 98 1021.4
20260831044226 16 331 0.0 1.6 0.00 0.00 0.00 98 1021.4
20260831043725 16 330 1.6 1.6 0.00 0.00 0.00 97 1021.4
20260831043226 16 331 1.6 3.2 0.00 0.00 0.00 97 1021.4
20260831042726 16 326 1.6 1.6 0.00 0.00 0.00 96 1021.4
20260831042225 16 328 1.6 1.6 0.00 0.00 0.00 96 1021.0
20260831041726 16 0.0 0.0 0.00 0.00 0.00 95 1021.0
20260831040724 16 332 1.6 1.6 0.00 0.00 0.00 95 1021.0
20260831040324 16 329 1.6 1.6 0.00 0.00 0.00 95 1021.0
20260831035725 17 326 1.6 1.6 0.00 0.00 0.00 94 1021.0
20260831034728 17 328 1.6 1.6 0.00 0.00 0.00 93 1021.0
20260831034222 17 341 4.8 8.0 0.00 0.00 0.00 92 1021.2
20260831033826 17 331 1.6 1.6 0.00 0.00 0.00 92 1021.4
20260831033223 17 329 1.6 3.2 0.00 0.00 0.00 92 1021.0
20260831032722 17 331 1.6 1.6 0.00 0.00 0.00 92 1021.0
20260831032221 17 329 0.0 1.6 0.00 0.00 0.00 92 1021.0
20260831031723 17 322 1.6 3.2 0.00 0.00 0.00 91 1021.0
20260831031221 17 330 1.6 3.2 0.00 0.00 0.00 91 1021.0
20260831030721 18 335 1.6 1.6 0.00 0.00 0.00 89 1021.0
20260831030220 18 341 1.6 1.6 0.00 0.00 0.00 90 1021.0
20260831025821 18 335 3.2 3.2 0.00 0.00 0.00 89 1021.2
20260831025220 18 348 3.2 8.0 0.00 0.00 0.00 89 1021.0
20260831024719 18 336 1.6 1.6 0.00 0.00 0.00 88 1021.0
20260831024218 18 332 1.6 3.2 0.00 0.00 0.00 90 1021.0
20260831023718 18 330 0.0 1.6 0.00 0.00 0.00 89 1021.2
20260831023219 18 328 0.0 1.6 0.00 0.00 0.00 90 1021.0
20260831022718 18 316 3.2 3.2 0.00 0.00 0.00 89 1021.0
20260831022217 18 341 1.6 3.2 0.00 0.00 0.00 89 1021.2
20260831021718 18 336 0.0 1.6 0.00 0.00 0.00 89 1021.0
20260831021218 18 331 3.2 4.8 0.00 0.00 0.00 89 1020.7
20260831020717 18 327 4.8 8.0 0.00 0.00 0.00 88 1020.7
20260831020216 18 338 3.2 8.0 0.00 0.00 0.00 87 1021.0
20260831015745 18 333 6.4 8.0 0.00 0.00 0.00 88 1021.0
20260831015246 18 336 4.8 8.0 0.00 0.00 0.00 88 1020.7
20260831014747 18 328 4.8 8.0 0.00 0.00 0.00 88 1020.7
20260831013744 18 334 3.2 4.8 0.00 0.00 0.00 88 1020.7
20260831013245 18 331 4.8 8.0 0.00 0.00 0.00 88 1020.7
20260831012744 18 328 3.2 8.0 0.00 0.00 0.00 88 1020.7
20260831012244 18 333 3.2 3.2 0.00 0.00 0.00 88 1020.7
20260831011744 19 347 0.0 1.6 0.00 0.00 0.00 88 1020.7
20260831011244 19 346 3.2 4.8 0.00 0.00 0.00 88 1020.3
20260831010843 19 325 3.2 8.0 0.00 0.00 0.00 88 1020.3
20260831010242 19 308 4.8 8.0 0.00 0.00 0.00 88 1020.3
20260831005242 19 343 4.8 8.0 0.00 0.00 0.00 87 1020.7
20260831004742 19 327 1.6 3.2 0.00 0.00 0.00 88 1020.3
20260831003742 19 325 4.8 4.8 0.00 0.00 0.00 88 1020.0
20260831003241 19 305 6.4 9.7 0.00 0.00 0.00 89 1020.0
20260831002740 19 340 3.2 4.8 0.00 0.00 0.00 89 1020.0
20260831002240 19 332 6.4 11.3 0.00 0.00 0.00 90 1020.0
20260831001839 19 324 1.6 3.2 0.00 0.00 0.00 90 1020.0
20260831001239 19 312 1.6 3.2 0.00 0.00 0.00 90 1020.0
20260831000739 19 320 1.6 3.2 0.00 0.00 0.00 89 1019.6
20260831000238 20 344 3.2 4.8 0.00 0.00 0.00 88 1019.6
20260830235737 20 313 4.8 11.3 0.00 0.00 0.00 86 1019.6
20260830235238 20 296 6.4 11.3 0.00 0.00 0.00 86 1019.6
20260830234737 20 326 1.6 1.6 0.00 0.00 0.00 85 1019.6
20260830234236 20 0.0 0.0 0.00 0.00 0.00 84 1019.6
20260830233735 20 325 1.6 3.2 0.00 0.00 0.00 83 1019.6
20260830233237 21 331 4.8 4.8 0.00 0.00 0.00 82 1019.3
20260830232736 21 331 4.8 9.7 0.00 0.00 0.00 81 1019.3
20260830232235 21 330 4.8 8.0 0.00 0.00 0.00 80 1019.4
20260830231734 21 332 1.6 4.8 0.00 0.00 0.00 80 1019.3